This is the latest recevied weather packets stored in our database for station/object EA3CO-11. If no packets are shown the sender has not sent any weather packets the latest 10 day(s).
| Time | Temp. | Humidity | Pressure | Rain* | Wind** | Luminosity | Snow |
|---|---|---|---|---|---|---|---|
| 1777872769 | 14.44° C | 100% | 1015.6 hPa | - | - | - | - |
| 1777871869 | 15° C | 100% | 1015.5 hPa | - | - | - | - |
| 1777870969 | 14.44° C | 100% | 1015.5 hPa | - | - | - | - |
| 1777870069 | 15° C | 100% | 1015.5 hPa | - | - | - | - |
| 1777869169 | 15° C | 100% | 1015.6 hPa | - | - | - | - |
| 1777868268 | 15° C | 100% | 1015.6 hPa | - | - | - | - |
| 1777867368 | 15° C | 100% | 1015.7 hPa | - | - | - | - |
| 1777866468 | 15° C | 100% | 1015.7 hPa | - | - | - | - |
| 1777865568 | 15° C | 99% | 1015.9 hPa | - | - | - | - |
| 1777864668 | 15° C | 96% | 1015.9 hPa | - | - | - | - |
| 1777863768 | 15° C | 100% | 1015.9 hPa | - | - | - | - |
| 1777862868 | 15° C | 97% | 1015.7 hPa | - | - | - | - |
| 1777861968 | 15° C | 100% | 1015.8 hPa | - | - | - | - |
| 1777861067 | 15° C | 100% | 1015.7 hPa | - | - | - | - |
| 1777860167 | 15° C | 100% | 1015.9 hPa | - | - | - | - |
| 1777859267 | 15° C | 100% | 1016 hPa | - | - | - | - |
| 1777858367 | 15° C | 100% | 1016.2 hPa | - | - | - | - |
| 1777857467 | 14.44° C | 100% | 1016.1 hPa | - | - | - | - |
| 1777856567 | 14.44° C | 100% | 1016.2 hPa | - | - | - | - |
| 1777855667 | 14.44° C | 100% | 1016.4 hPa | - | - | - | - |
| 1777854767 | 15° C | 100% | 1016.5 hPa | - | - | - | - |
| 1777853866 | 15° C | 100% | 1016.6 hPa | - | - | - | - |
| 1777852966 | 15° C | 100% | 1016.5 hPa | - | - | - | - |
| 1777852066 | 15° C | 100% | 1016.8 hPa | - | - | - | - |
| 1777851166 | 15.56° C | 98% | 1016.8 hPa | - | - | - | - |
* Rain since midnight (hover to see other rain measurements)
** Current wind speed in m/s (hover to see current wind gust speed)